Location: Newark
(55.5030°N, 22.7200°E)
Time: 05:27:48
(UTC+00:00)

Vanguard 1 - All Passes

Search period start: 06 June 2020 00:00
Search period end: 16 June 2020 00:00
Orbit: 649 x 3834 km, 34.3° (Epoch: 05 June)

Date Brightness Start Highest point End Pass type
(mag) Time Alt. Az. Time Alt. Az. Time Alt. Az.
06 Jun - 00:44:46 10° SSE 00:51:30 15° SE 00:59:43 10° ESE visible
06 Jun - 02:58:09 10° SSW 03:10:58 32° SSE 03:28:44 10° ESE daylight
06 Jun - 05:16:56 10° WSW 05:33:00 39° S 05:53:04 10° SE daylight
06 Jun - 07:38:54 10° WSW 07:55:40 31° SSW 08:13:23 10° SSE daylight
06 Jun - 10:07:27 10° WSW 10:16:30 14° SW 10:25:20 10° SSW daylight
07 Jun - 01:02:54 10° S 01:11:18 19° SE 01:22:18 10° E daylight
07 Jun - 03:18:08 10° SW 03:31:17 34° SSE 03:49:44 10° ESE daylight
07 Jun - 05:37:31 10° WSW 05:53:33 38° S 06:13:23 10° SE daylight
07 Jun - 08:00:11 10° W 08:15:57 27° SSW 08:32:32 10° SSE daylight
08 Jun - 01:21:50 10° S 01:31:12 22° SE 01:44:09 10° E daylight
08 Jun - 03:38:17 10° SW 03:51:42 36° SSE 04:10:34 10° ESE daylight
08 Jun - 05:58:14 10° WSW 06:14:05 36° SSW 06:33:29 10° SE daylight
08 Jun - 08:21:51 10° W 08:36:09 22° SW 08:51:07 10° S daylight
09 Jun - 01:41:15 10° SSW 01:51:16 26° SSE 02:05:37 10° ESE daylight
09 Jun - 03:58:36 10° SW 04:12:11 37° S 04:31:15 10° ESE daylight
09 Jun - 06:19:05 10° WSW 06:34:36 33° SSW 06:53:18 10° SSE daylight
09 Jun - 08:44:06 10° WSW 08:56:15 18° SW 09:08:53 10° S daylight
09 Jun - 23:49:26 10° SE 23:52:42 11° SE 23:56:23 10° ESE visible
10 Jun - 02:00:59 10° SSW 02:11:26 29° SSE 02:26:49 10° ESE daylight
10 Jun - 04:19:03 10° WSW 04:32:42 36° S 04:51:46 10° SE daylight
10 Jun - 06:40:07 10° WSW 06:55:03 29° SSW 07:12:48 10° SSE daylight
10 Jun - 09:07:42 10° WSW 09:16:15 14° SW 09:25:03 10° SSW daylight
11 Jun - 00:06:39 10° SSE 00:12:29 15° SE 00:19:54 10° ESE visible
11 Jun - 02:20:57 10° SW 02:31:43 31° SSE 02:47:50 10° ESE daylight
11 Jun - 04:39:37 10° WSW 04:53:16 35° S 05:12:05 10° SE daylight
11 Jun - 07:01:24 10° WSW 07:15:26 25° SSW 07:31:51 10° SSE daylight
12 Jun - 00:25:22 10° S 00:32:24 19° SE 00:41:59 10° ESE visible
12 Jun - 02:41:06 10° SW 02:52:06 33° SSE 03:08:41 10° ESE daylight
12 Jun - 05:00:19 10° WSW 05:13:49 33° SSW 05:32:10 10° SE daylight
12 Jun - 07:23:04 10° WSW 07:35:45 21° SW 07:50:17 10° S daylight
13 Jun - 00:44:41 10° SSW 00:52:26 22° SSE 01:03:33 10° ESE visible
13 Jun - 03:01:24 10° SW 03:12:33 33° S 03:29:23 10° ESE daylight
13 Jun - 05:21:09 10° WSW 05:34:21 30° SSW 05:51:57 10° SSE daylight
13 Jun - 07:45:26 10° WSW 07:55:59 17° SW 08:07:46 10° S daylight
14 Jun - 01:04:23 10° SSW 01:12:36 25° SSE 01:24:48 10° ESE daylight
14 Jun - 03:21:50 10° SW 03:33:03 33° S 03:49:54 10° SE daylight
14 Jun - 05:42:11 10° WSW 05:54:52 27° SSW 06:11:22 10° SSE daylight
14 Jun - 08:09:31 10° WSW 08:16:09 12° SW 08:23:13 10° SSW daylight
14 Jun - 23:11:49 10° SSE 23:14:15 11° SE 23:16:57 10° ESE visible
15 Jun - 01:24:19 10° SSW 01:32:51 27° SSE 01:45:50 10° ESE daylight
15 Jun - 03:42:23 10° WSW 03:53:36 32° S 04:10:12 10° SE daylight
15 Jun - 06:03:30 10° WSW 06:15:20 23° SSW 06:30:16 10° SSE daylight
15 Jun - 23:29:36 10° SSE 23:34:11 14° SE 23:39:58 10° ESE visible
